Atajado, Bolivia

1:22 PM BOT en Diciembre 16, 2018 (GMT -0400)
Atajado

Tiempo Historia de 85245 - Octubre, 2018

Change the Weather History Date:

Viernes, Octubre 12, 2018

  Actual Average Record
Temperature  
Temperatura media 76 ° F -  
Temperatura máxima 85 ° F 85 ° F - ()
Temperatura mínima 68 ° F 69 ° F - ()
Cooling Degree Days 12    
Growing Degree Days 26 (Base 50)    
Moisture  
Punto de rocío 69 ° F    
Average Humidity 73    
Maximum Humidity 96    
Minimum Humidity 54    
Precipitación  
Precipitación 0.00 pul - - ()
Presión al nivel del mar  
Presión al nivel del mar 29.83 pul    
Viento  
Velocidad del viento 11 mph ()    
Velocidad máxima del viento 21 mph    
Max Gust Speed 37 mph    
Visibilidad 7.8 Millas    
Eventos      
T = Trace of Precipitation, MM = Missing Value Source: Averaged Metar Reports

Daily Weather History Graph

Daily Weather History Graph

Search for Another Location

Airport or City:

Astronomía

Oct. 12, 2018 Salida Puesta
Hora real 5:46 AM BOT 6:12 PM BOT
Crepúsculo civil 5:24 AM BOT 6:34 PM BOT
Crepúsculo náutico 4:58 AM BOT 7:00 PM BOT
Crepúsculo astronómico 4:32 AM BOT 7:26 PM BOT
Luna 8:28 AM BOT (10/12) 9:39 PM BOT (10/12)
Horas de luz 13h 10m
Horas de luz
12h 26m
Creciente, 14% of the Moon is Illuminated
Oct 12
Creciente
Oct 16
Cuarto creciente
Oct 24
Luna llena
Oct 31
Cuarto menguante
Nov 7
Nueva

Hourly Weather History & Observations

Hora (BOT) Temp. Índice de calor Punto de rocío Humedad Presión Visibilidad Wind Dir Velocidad del viento Velocidad de ráfagas Precip Eventos Condiciones
5:00 AM 69 ° F - 68 ° F 96% 29.83 pul 9 mi NO 6.9 mph - -   Muy nublado
5:00 AM 69.8 ° F - 68.0 ° F 94% 29.83 pul 6.2 mi NO 6.9 mph - N/A   Muy nublado
6:00 AM 69.8 ° F - 68.0 ° F 94% 29.86 pul 6.2 mi NO 8.1 mph - N/A   Muy nublado
7:00 AM 71.6 ° F - 68.0 ° F 88% 29.86 pul 6.2 mi NNO 10.4 mph - N/A   Muy nublado
7:35 AM 73.4 ° F - 68.0 ° F 83% 29.89 pul 6.2 mi NO 15.0 mph - N/A   Muy nublado
8:00 AM 74 ° F - 69 ° F 79% 29.85 pul 12 mi NO 15.0 mph - -   Muy nublado
8:00 AM 75.2 ° F - 69.8 ° F 83% 29.89 pul 6.2 mi NO 15.0 mph - N/A   Muy nublado
9:00 AM 77.0 ° F - 69.8 ° F 78% 29.89 pul 6.2 mi NO 13.8 mph - N/A   Muy nublado
10:00 AM 80.6 ° F 83.2 ° F 68.0 ° F 65% 29.89 pul 6.2 mi NO 16.1 mph 28.8 mph N/A   Muy nublado
11:00 AM 81 ° F - 69 ° F 59% 29.85 pul 12 mi NO 16.1 mph - -   Muy nublado
11:00 AM 80.6 ° F 83.9 ° F 69.8 ° F 70% 29.89 pul 6.2 mi NO 16.1 mph 29.9 mph N/A   Muy nublado
12:00 PM 82.4 ° F 86.3 ° F 69.8 ° F 66% 29.86 pul 6.2 mi NO 17.3 mph 29.9 mph N/A   Muy nublado
1:00 PM 84.2 ° F 88.4 ° F 69.8 ° F 62% 29.83 pul 6.2 mi NO 16.1 mph 29.9 mph N/A   Muy nublado
2:00 PM 84 ° F - 70 ° F 54% 29.75 pul 19 mi NO 16.1 mph - -   Muy nublado
2:00 PM 84.2 ° F 88.4 ° F 69.8 ° F 62% 29.80 pul 6.2 mi NO 16.1 mph 32.2 mph N/A   Muy nublado
3:00 PM 84.2 ° F 88.4 ° F 69.8 ° F 62% 29.77 pul 6.2 mi NO 20.7 mph 36.8 mph N/A   Muy nublado
4:00 PM 84.2 ° F 88.4 ° F 69.8 ° F 62% 29.77 pul 6.2 mi Norte 17.3 mph 31.1 mph N/A   Muy nublado
5:00 PM 82 ° F - 70 ° F 59% 29.77 pul 12 mi NO 16.1 mph - -   Parcialmente nublado
5:00 PM 82.4 ° F 86.3 ° F 69.8 ° F 66% 29.77 pul 6.2 mi NO 16.1 mph 27.6 mph N/A   Muy nublado
6:00 PM 80.6 ° F 83.9 ° F 69.8 ° F 70% 29.77 pul 6.2 mi NO 11.5 mph 24.2 mph N/A   Muy nublado
7:00 PM 77.0 ° F - 69.8 ° F 78% 29.77 pul 6.2 mi NO 13.8 mph 28.8 mph N/A   Muy nublado